Location: Sevilla
(37.3933°N, 5.9839°W)
Time: 04:02:51
(UTC+02:00)

Tiros 1 despin weight - Pass Details

Date: 25 June 2024
Orbit: 576 x 620 km, 48.2° (Epoch: 22 July)

Event Time Altitude Azimuth Distance (km) Brightness Sun altitude
Rises 17:06:55 0° 303° (WNW) 2,897 ? 53.1°
Reaches altitude 10° 17:09:37 10° 317° (NW) 1,989 ? 52.5°
Maximum altitude 17:13:21 24° 12° (NNE) 1,293 ? 51.8°
Drops below altitude 10° 17:17:03 10° 66° (ENE) 1,977 ? 51.1°
Sets 17:19:43 0° 81° (E) 2,875 ? 50.5°
